Change the Weather History Date:

Tuesday, September 3, 2013

  Actual Average Record
Temperature  
Mean Temperature 81 °F -  
Max Temperature 91 °F 86 °F 93 °F (1997)
Min Temperature 71 °F 66 °F 37 °F (1996)
Cooling Degree Days 16    
Growing Degree Days 31 (Base 50)    
Moisture  
Dew Point 72 °F    
Average Humidity 80    
Maximum Humidity 97    
Minimum Humidity 50    
Precipitation  
Precipitation 0.04 in - - ()
Sea Level Pressure  
Sea Level Pressure 29.97 in    
Wind  
Wind Speed 1 mph (NNW)    
Max Wind Speed 7 mph    
Max Gust Speed 17 mph    
Visibility 8 miles    
Events Rain , Thunderstorm    
Averages and records for this station are not official NWS values.
T = Trace of Precipitation, MM = Missing Value Source: NWS Daily Summary

Daily Weather History Graph

Daily Weather History Graph

Search for Another Location

Airport or City:

Trip Planner

Search our weather history database for the weather conditions in past years. The results will help you decide how hot, cold, wet, or windy it might be!

Date:

Astronomy

Sep. 03, 2013 Rise Set
Actual Time 6:30 AM CDT 7:15 PM CDT
Civil Twilight 6:05 AM CDT 7:40 PM CDT
Nautical Twilight 5:36 AM CDT 8:10 PM CDT
Astronomical Twilight 5:05 AM CDT 8:40 PM CDT
Moon 4:47 AM CDT (9/3) 6:01 PM CDT (9/3)
Length of Visible Light 13h 35m
Length of Day
12h 45m
Waning Crescent, 3% of the Moon is Illuminated
Sep 3
Waning Crescent
Sep 5
New
Sep 12
First Quarter
Sep 19
Full
Sep 26
Last Quarter

Hourly Weather History & Observations

Time (CDT) Temp. Heat Index Dew Point Humidity Pressure Visibility Wind Dir Wind Speed Gust Speed Precip Events Conditions
12:56 AM 73.9 °F - 72.0 °F 93% 29.95 in 7.0 mi Calm Calm - N/A   Clear
1:36 AM 73.4 °F - 71.6 °F 94% 29.92 in 6.0 mi Calm Calm - N/A   Partly Cloudy
1:56 AM 73.0 °F - 71.1 °F 93% 29.95 in 4.0 mi Calm Calm - N/A   Partly Cloudy
2:56 AM 73.0 °F - 71.1 °F 93% 29.95 in 5.0 mi Calm Calm - N/A   Clear
3:52 AM 71.6 °F - 69.8 °F 94% 29.93 in 2.0 mi Calm Calm - N/A   Clear
3:56 AM 72.0 °F - 70.0 °F 93% 29.95 in 3.0 mi Calm Calm - N/A   Clear
4:56 AM 72.0 °F - 71.1 °F 97% 29.96 in 5.0 mi Calm Calm - N/A   Scattered Clouds
5:56 AM 73.0 °F - 71.1 °F 93% 29.96 in 7.0 mi Calm Calm - 0.01 in   Clear
6:56 AM 72.0 °F - 70.0 °F 93% 29.98 in 8.0 mi Calm Calm - N/A   Partly Cloudy
7:56 AM 75.9 °F - 73.0 °F 91% 29.99 in 8.0 mi Calm Calm - N/A   Clear
8:56 AM 80.1 °F 84.2 °F 73.0 °F 79% 30.00 in 10.0 mi North 4.6 mph - N/A   Clear
9:56 AM 84.0 °F 90.2 °F 73.0 °F 69% 30.01 in 10.0 mi NNW 6.9 mph - N/A   Clear
10:56 AM 87.1 °F 93.6 °F 72.0 °F 61% 30.01 in 10.0 mi Calm Calm - N/A   Partly Cloudy
11:56 AM 88.0 °F 94.7 °F 72.0 °F 59% 30.01 in 10.0 mi NNW 5.8 mph - N/A   Scattered Clouds
12:56 PM 89.1 °F 95.0 °F 71.1 °F 55% 29.99 in 10.0 mi Variable 6.9 mph - N/A   Clear
1:56 PM 91.0 °F 98.2 °F 72.0 °F 53% 29.96 in 10.0 mi NNW 5.8 mph - N/A   Partly Cloudy
2:56 PM 91.0 °F 98.2 °F 72.0 °F 53% 29.93 in 10.0 mi Calm Calm - N/A   Scattered Clouds
3:56 PM 91.9 °F 98.4 °F 71.1 °F 50% 29.92 in 10.0 mi North 5.8 mph - N/A   Scattered Clouds
4:56 PM 84.0 °F 89.6 °F 72.0 °F 67% 29.93 in 5.0 mi Variable 5.8 mph 17.3 mph 0.02 in Rain , Thunderstorm Thunderstorms and Rain
5:17 PM 80.6 °F 86.2 °F 75.2 °F 84% 29.91 in 10.0 mi Calm Calm - 0.01 in   Mostly Cloudy
5:56 PM 82.9 °F 90.8 °F 75.9 °F 79% 29.94 in 10.0 mi Calm Calm - 0.01 in   Mostly Cloudy
6:56 PM 81.0 °F 87.9 °F 77.0 °F 88% 29.94 in 10.0 mi Calm Calm - N/A   Scattered Clouds
7:56 PM 79.0 °F - 75.9 °F 90% 29.98 in 9.0 mi Calm Calm - N/A   Mostly Cloudy
8:56 PM 79.0 °F - 75.9 °F 90% 29.99 in 9.0 mi Calm Calm - N/A   Mostly Cloudy
9:56 PM 78.1 °F - 73.0 °F 84% 30.01 in 10.0 mi West 3.5 mph - N/A   Partly Cloudy
10:56 PM 75.9 °F - 72.0 °F 87% 30.01 in 10.0 mi West 4.6 mph - N/A   Partly Cloudy
11:56 PM 75.0 °F - 71.1 °F 87% 30.01 in 10.0 mi Calm Calm - N/A   Clear